QPF
0.01 0.01 0.01 0.01 0.00 0.00 0.00 0.00 0.00 0.00 0.00 0.00 0.01 0.02 0.01 0.00 0.00 0.00 0.00 0.01 0.01 0.01 0.01 0.01 0.01 0.00 0.01 0.01 0.01 0.01 0.01 0.01 0.02 0.02 0.02 0.01 0.00 0.00 0.00 0.00 0.00 0.00 0.00 0.00
0.01 0.01 0.01 0.01 0.01 0.00 0.00 0.00 0.00 0.00 0.00 0.00 0.00 0.01 0.01 0.00 0.00 0.00 0.00 0.01 0.01 0.01 0.01 0.01 0.01 0.01 0.01 0.01 0.01 0.01 0.01 0.01 0.01 0.01 0.01 0.01 0.00 0.00 0.00 0.00 0.00 0.00 0.00 0.00
0.01 0.02 0.02 0.01 0.01 0.00 0.00 0.00 0.00 0.00 0.00 0.00 0.00 0.00 0.01 0.00 0.00 0.00 0.00 0.00 0.01 0.01 0.01 0.00 0.01 0.01 0.01 0.01 0.01 0.01 0.01 0.01 0.01 0.01 0.01 0.01 0.00 0.00 0.00 0.00 0.00 0.00 0.00 0.00
0.02 0.02 0.03 0.01 0.00 0.00 0.00 0.00 0.00 0.00 0.00 0.00 0.00 0.00 0.00 0.00 0.00 0.00 0.00 0.00 0.00 0.01 0.01 0.01 0.00 0.01 0.01 0.01 0.01 0.01 0.01 0.01 0.01 0.01 0.01 0.01 0.00 0.00 0.00 0.00 0.00 0.00 0.00 0.00
0.02 0.02 0.03 0.01 0.00 0.01 0.01 0.00 0.00 0.00 0.00 0.00 0.00 0.00 0.00 0.00 0.00 0.00 0.00 0.00 0.01 0.01 0.01 0.01 0.01 0.01 0.01 0.01 0.01 0.01 0.01 0.01 0.01 0.01 0.01 0.01 0.01 0.01 0.00 0.01 0.01 0.01 0.01 0.01
0.03 0.02 0.02 0.01 0.00 0.01 0.01 0.01 0.00 0.00 0.00 0.00 0.00 0.00 0.00 0.00 0.00 0.00 0.00 0.00 0.00 0.01 0.01 0.01 0.01 0.01 0.00 0.00 0.00 0.01 0.01 0.01 0.02 0.01 0.01 0.01 0.01 0.01 0.01 0.01 0.01 0.01 0.01 0.01
0.02 0.02 0.02 0.01 0.00 0.01 0.01 0.01 0.01 0.01 0.00 0.00 0.00 0.00 0.00 0.00 0.00 0.00 0.01 0.01 0.00 0.01 0.01 0.00 0.00 0.00 0.00 0.01 0.01 0.01 0.01 0.01 0.01 0.01 0.01 0.02 0.02 0.02 0.01 0.01 0.01 0.01 0.01 0.01
0.01 0.01 0.02 0.01 0.01 0.01 0.01 0.00 0.01 0.01 0.01 0.00 0.00 0.00 0.00 0.00 0.00 0.00 0.00 0.01 0.01 0.01 0.01 0.00 0.01 0.01 0.01 0.01 0.01 0.01 0.01 0.01 0.01 0.01 0.01 0.01 0.02 0.02 0.02 0.02 0.01 0.01 0.01 0.01
0.01 0.01 0.02 0.02 0.02 0.01 0.01 0.01 0.01 0.01 0.01 0.00 0.00 0.00 0.00 0.00 0.00 0.00 0.00 0.00 0.01 0.02 0.02 0.01 0.01 0.01 0.01 0.01 0.01 0.02 0.02 0.02 0.02 0.02 0.01 0.01 0.02 0.03 0.02 0.02 0.02 0.02 0.01 0.01
0.01 0.01 0.01 0.02 0.03 0.02 0.01 0.01 0.00 0.00 0.01 0.01 0.00 0.00 0.00 0.01 0.00 0.00 0.00 0.00 0.00 0.01 0.02 0.02 0.01 0.01 0.02 0.01 0.01 0.02 0.02 0.02 0.01 0.01 0.02 0.02 0.02 0.02 0.02 0.02 0.02 0.02 0.03 0.03
0.00 0.01 0.02 0.02 0.03 0.03 0.01 0.01 0.01 0.01 0.01 0.00 0.00 0.01 0.01 0.01 0.01 0.01 0.01 0.00 0.00 0.00 0.00 0.01 0.01 0.01 0.01 0.01 0.01 0.01 0.01 0.02 0.02 0.01 0.01 0.02 0.01 0.01 0.02 0.02 0.03 0.04 0.05 0.07
0.00 0.01 0.02 0.02 0.02 0.02 0.01 0.01 0.00 0.00 0.00 0.00 0.00 0.00 0.00 0.01 0.01 0.01 0.01 0.00 0.00 0.00 0.00 0.00 0.00 0.00 0.00 0.01 0.01 0.01 0.01 0.01 0.01 0.01 0.01 0.02 0.02 0.02 0.02 0.02 0.04 0.06 0.06 0.07
0.00 0.01 0.01 0.01 0.02 0.01 0.02 0.01 0.00 0.00 0.00 0.00 0.00 0.00 0.00 0.00 0.00 0.00 0.00 0.00 0.00 0.00 0.00 0.00 0.00 0.00 0.00 0.01 0.01 0.02 0.02 0.02 0.01 0.02 0.02 0.04 0.04 0.03 0.02 0.02 0.02 0.05 0.05 0.05
0.00 0.00 0.01 0.01 0.01 0.01 0.02 0.02 0.00 0.00 0.00 0.00 0.00 0.00 0.00 0.00 0.00 0.00 0.00 0.00 0.00 0.00 0.00 0.00 0.00 0.01 0.01 0.01 0.02 0.02 0.02 0.02 0.03 0.02 0.02 0.03 0.03 0.04 0.03 0.02 0.02 0.02 0.03 0.05
0.00 0.00 0.01 0.01 0.01 0.00 0.00 0.01 0.01 0.00 0.00 0.00 0.00 0.00 0.00 0.00 0.00 0.00 0.00 0.00 0.00 0.00 0.00 0.00 0.00 0.01 0.02 0.01 0.01 0.01 0.01 0.01 0.02 0.02 0.02 0.03 0.03 0.02 0.02 0.02 0.02 0.02 0.02 0.03
0.00 0.00 0.01 0.01 0.00 0.00 0.00 0.00 0.01 0.01 0.00 0.00 0.00 0.01 0.00 0.00 0.00 0.00 0.00 0.00 0.00 0.00 0.00 0.00 0.00 0.00 0.01 0.01 0.00 0.01 0.01 0.02 0.02 0.02 0.02 0.03 0.03 0.02 0.01 0.01 0.01 0.01 0.01 0.01
0.00 0.00 0.00 0.00 0.00 0.00 0.00 0.00 0.01 0.02 0.02 0.01 0.01 0.01 0.01 0.00 0.00 0.00 0.00 0.00 0.00 0.00 0.00 0.00 0.00 0.00 0.00 0.01 0.01 0.01 0.01 0.01 0.01 0.02 0.02 0.03 0.03 0.02 0.01 0.01 0.01 0.01 0.01 0.01
0.00 0.00 0.00 0.00 0.00 0.00 0.00 0.00 0.01 0.01 0.02 0.01 0.01 0.01 0.01 0.01 0.00 0.00 0.00 0.00 0.00 0.00 0.00 0.00 0.00 0.00 0.00 0.01 0.01 0.01 0.01 0.01 0.02 0.01 0.01 0.01 0.02 0.02 0.01 0.02 0.02 0.02 0.02 0.02
0.00 0.00 0.01 0.01 0.00 0.00 0.00 0.00 0.00 0.00 0.01 0.01 0.01 0.01 0.01 0.01 0.00 0.00 0.00 0.00 0.00 0.00 0.00 0.01 0.01 0.02 0.01 0.00 0.01 0.01 0.01 0.01 0.01 0.01 0.01 0.01 0.01 0.01 0.01 0.02 0.03 0.03 0.03 0.02
0.00 0.00 0.00 0.01 0.01 0.00 0.00 0.00 0.00 0.00 0.00 0.01 0.01 0.01 0.01 0.01 0.01 0.00 0.00 0.00 0.00 0.00 0.00 0.00 0.01 0.01 0.01 0.00 0.01 0.01 0.02 0.02 0.01 0.01 0.01 0.01 0.01 0.01 0.01 0.01 0.02 0.02 0.01 0.01
0.00 0.00 0.00 0.00 0.00 0.00 0.01 0.01 0.01 0.01 0.00 0.00 0.01 0.01 0.01 0.01 0.00 0.00 0.00 0.00 0.00 0.00 0.00 0.01 0.00 0.00 0.01 0.01 0.01 0.01 0.01 0.03 0.02 0.01 0.01 0.01 0.01 0.01 0.01 0.01 0.01 0.01 0.02 0.02
0.00 0.00 0.00 0.00 0.00 0.00 0.00 0.01 0.01 0.01 0.01 0.01 0.01 0.01 0.01 0.00 0.00 0.00 0.00 0.01 0.00 0.00 0.01 0.01 0.01 0.01 0.01 0.03 0.03 0.02 0.02 0.03 0.04 0.03 0.01 0.01 0.02 0.02 0.02 0.02 0.02 0.02 0.02 0.02
0.00 0.00 0.00 0.00 0.00 0.00 0.00 0.00 0.01 0.01 0.00 0.00 0.00 0.00 0.00 0.00 0.00 0.00 0.01 0.01 0.00 0.01 0.01 0.01 0.01 0.01 0.02 0.03 0.04 0.03 0.02 0.03 0.03 0.03 0.02 0.01 0.02 0.02 0.02 0.02 0.02 0.02 0.02 0.02
0.01 0.00 0.00 0.00 0.00 0.00 0.00 0.00 0.00 0.01 0.01 0.00 0.00 0.00 0.00 0.00 0.00 0.00 0.01 0.01 0.01 0.01 0.00 0.00 0.01 0.01 0.01 0.01 0.01 0.01 0.01 0.02 0.03 0.02 0.01 0.01 0.02 0.02 0.03 0.03 0.03 0.02 0.02 0.02
0.01 0.01 0.01 0.00 0.00 0.01 0.01 0.00 0.00 0.00 0.01 0.00 0.00 0.00 0.00 0.00 0.00 0.00 0.01 0.02 0.01 0.01 0.00 0.00 0.01 0.01 0.00 0.00 0.00 0.00 0.01 0.01 0.01 0.01 0.01 0.01 0.01 0.02 0.02 0.02 0.02 0.02 0.02 0.02
0.01 0.01 0.01 0.01 0.01 0.00 0.00 0.00 0.00 0.00 0.00 0.01 0.01 0.00 0.00 0.00 0.00 0.00 0.01 0.02 0.02 0.02 0.01 0.00 0.00 0.01 0.01 0.00 0.00 0.00 0.00 0.00 0.00 0.00 0.00 0.01 0.01 0.01 0.01 0.01 0.01 0.01 0.01 0.01
0.02 0.02 0.02 0.01 0.01 0.00 0.00 0.00 0.01 0.01 0.00 0.00 0.01 0.01 0.01 0.00 0.00 0.00 0.01 0.02 0.02 0.02 0.02 0.01 0.01 0.01 0.00 0.01 0.00 0.00 0.00 0.00 0.00 0.00 0.00 0.00 0.00 0.00 0.00 0.00 0.00 0.00 0.00 0.00
MSLP
1018.12 1018.61 1019.04 1019.41 1019.69 1019.86 1019.90 1019.79 1019.51 1019.05 1018.43 1017.67 1016.81 1015.90 1015.01 1014.19 1013.48 1012.92 1012.52 1012.31 1012.26 1012.36 1012.59 1012.92 1013.33 1013.80 1014.30 1014.84 1015.39 1015.94 1016.48 1017.00 1017.49 1017.95 1018.38 1018.77 1019.13 1019.46 1019.76 1020.04 1020.30 1020.53 1020.74 1020.93
1018.18 1018.59 1018.89 1019.07 1019.15 1019.12 1019.00 1018.77 1018.45 1018.02 1017.50 1016.88 1016.20 1015.47 1014.72 1013.99 1013.32 1012.75 1012.29 1011.97 1011.81 1011.80 1011.94 1012.21 1012.60 1013.08 1013.64 1014.23 1014.85 1015.47 1016.07 1016.63 1017.17 1017.66 1018.11 1018.54 1018.93 1019.29 1019.62 1019.94 1020.22 1020.47 1020.69 1020.89
1018.35 1018.66 1018.81 1018.81 1018.69 1018.48 1018.20 1017.88 1017.52 1017.13 1016.69 1016.21 1015.67 1015.09 1014.46 1013.81 1013.16 1012.55 1012.01 1011.59 1011.31 1011.19 1011.24 1011.46 1011.84 1012.34 1012.94 1013.60 1014.28 1014.97 1015.63 1016.25 1016.82 1017.35 1017.83 1018.28 1018.70 1019.09 1019.46 1019.80 1020.10 1020.37 1020.60 1020.79
1018.55 1018.75 1018.74 1018.58 1018.28 1017.92 1017.52 1017.12 1016.74 1016.37 1016.01 1015.64 1015.22 1014.75 1014.21 1013.60 1012.96 1012.31 1011.70 1011.17 1010.79 1010.58 1010.56 1010.73 1011.10 1011.62 1012.26 1012.98 1013.73 1014.48 1015.19 1015.86 1016.46 1017.02 1017.53 1018.00 1018.44 1018.86 1019.25 1019.61 1019.93 1020.22 1020.45 1020.64
1018.65 1018.72 1018.59 1018.28 1017.86 1017.38 1016.90 1016.45 1016.07 1015.74 1015.45 1015.16 1014.83 1014.44 1013.95 1013.38 1012.72 1012.03 1011.36 1010.76 1010.30 1010.02 1009.95 1010.10 1010.46 1011.00 1011.67 1012.44 1013.24 1014.03 1014.78 1015.48 1016.11 1016.68 1017.20 1017.69 1018.15 1018.58 1019.00 1019.38 1019.71 1020.00 1020.23 1020.41
1018.49 1018.46 1018.22 1017.83 1017.33 1016.79 1016.28 1015.84 1015.47 1015.19 1014.96 1014.74 1014.48 1014.14 1013.70 1013.14 1012.48 1011.77 1011.06 1010.41 1009.90 1009.58 1009.48 1009.62 1009.98 1010.53 1011.23 1012.02 1012.84 1013.65 1014.42 1015.12 1015.76 1016.34 1016.87 1017.36 1017.83 1018.28 1018.71 1019.10 1019.45 1019.74 1019.96 1020.12
1017.95 1017.85 1017.56 1017.14 1016.63 1016.11 1015.63 1015.23 1014.92 1014.70 1014.53 1014.37 1014.17 1013.88 1013.47 1012.93 1012.28 1011.57 1010.85 1010.19 1009.67 1009.33 1009.23 1009.36 1009.72 1010.27 1010.96 1011.75 1012.56 1013.36 1014.12 1014.81 1015.44 1016.01 1016.53 1017.03 1017.51 1017.97 1018.41 1018.81 1019.16 1019.45 1019.67 1019.81
1017.00 1016.87 1016.59 1016.20 1015.76 1015.32 1014.92 1014.61 1014.39 1014.25 1014.15 1014.06 1013.91 1013.66 1013.29 1012.78 1012.16 1011.47 1010.78 1010.14 1009.64 1009.32 1009.21 1009.34 1009.69 1010.22 1010.88 1011.63 1012.41 1013.17 1013.89 1014.55 1015.15 1015.70 1016.22 1016.72 1017.21 1017.68 1018.12 1018.54 1018.89 1019.18 1019.39 1019.53
1015.71 1015.60 1015.38 1015.09 1014.77 1014.46 1014.20 1014.02 1013.91 1013.87 1013.85 1013.82 1013.72 1013.52 1013.18 1012.72 1012.15 1011.52 1010.88 1010.29 1009.83 1009.54 1009.45 1009.57 1009.89 1010.38 1010.99 1011.67 1012.38 1013.07 1013.73 1014.34 1014.91 1015.45 1015.96 1016.47 1016.96 1017.45 1017.91 1018.33 1018.70 1018.99 1019.20 1019.32
1014.24 1014.18 1014.06 1013.91 1013.75 1013.61 1013.52 1013.49 1013.51 1013.57 1013.63 1013.66 1013.61 1013.45 1013.17 1012.77 1012.27 1011.71 1011.14 1010.63 1010.22 1009.97 1009.90 1010.01 1010.29 1010.71 1011.24 1011.83 1012.45 1013.06 1013.65 1014.21 1014.75 1015.27 1015.78 1016.30 1016.81 1017.32 1017.80 1018.24 1018.62 1018.92 1019.14 1019.27
1012.76 1012.79 1012.80 1012.81 1012.83 1012.87 1012.95 1013.07 1013.21 1013.37 1013.50 1013.58 1013.58 1013.47 1013.24 1012.91 1012.48 1012.01 1011.54 1011.10 1010.77 1010.56 1010.50 1010.59 1010.82 1011.17 1011.61 1012.10 1012.62 1013.14 1013.66 1014.17 1014.68 1015.19 1015.71 1016.25 1016.80 1017.33 1017.85 1018.31 1018.71 1019.03 1019.26 1019.41
1011.47 1011.60 1011.75 1011.92 1012.10 1012.32 1012.54 1012.79 1013.03 1013.26 1013.44 1013.56 1013.60 1013.53 1013.36 1013.10 1012.76 1012.39 1012.01 1011.67 1011.41 1011.25 1011.20 1011.27 1011.44 1011.71 1012.05 1012.44 1012.86 1013.30 1013.75 1014.22 1014.72 1015.24 1015.78 1016.35 1016.94 1017.52 1018.07 1018.57 1018.99 1019.34 1019.60 1019.77
1010.49 1010.71 1010.98 1011.28 1011.61 1011.95 1012.30 1012.63 1012.94 1013.22 1013.43 1013.58 1013.63 1013.60 1013.49 1013.30 1013.05 1012.78 1012.51 1012.27 1012.08 1011.96 1011.93 1011.98 1012.11 1012.30 1012.55 1012.85 1013.18 1013.55 1013.96 1014.40 1014.89 1015.42 1016.00 1016.62 1017.25 1017.87 1018.46 1019.00 1019.47 1019.84 1020.14 1020.35
1009.83 1010.13 1010.49 1010.89 1011.32 1011.75 1012.17 1012.55 1012.90 1013.19 1013.42 1013.58 1013.65 1013.66 1013.60 1013.48 1013.33 1013.16 1013.00 1012.85 1012.74 1012.67 1012.66 1012.70 1012.79 1012.93 1013.11 1013.33 1013.59 1013.91 1014.28 1014.71 1015.21 1015.77 1016.38 1017.04 1017.71 1018.38 1019.02 1019.60 1020.10 1020.52 1020.86 1021.12
1009.44 1009.79 1010.21 1010.67 1011.15 1011.63 1012.08 1012.49 1012.85 1013.14 1013.37 1013.54 1013.64 1013.68 1013.68 1013.65 1013.59 1013.53 1013.46 1013.41 1013.38 1013.37 1013.39 1013.43 1013.50 1013.59 1013.72 1013.89 1014.11 1014.39 1014.74 1015.17 1015.68 1016.27 1016.92 1017.61 1018.33 1019.04 1019.71 1020.33 1020.87 1021.33 1021.71 1022.03
1009.21 1009.59 1010.03 1010.52 1011.02 1011.51 1011.97 1012.39 1012.74 1013.04 1013.27 1013.45 1013.59 1013.68 1013.75 1013.80 1013.84 1013.88 1013.92 1013.97 1014.02 1014.07 1014.12 1014.18 1014.24 1014.32 1014.42 1014.55 1014.75 1015.01 1015.35 1015.79 1016.31 1016.92 1017.60 1018.32 1019.07 1019.81 1020.51 1021.16 1021.74 1022.23 1022.66 1023.02
1009.04 1009.42 1009.86 1010.35 1010.85 1011.34 1011.80 1012.21 1012.58 1012.88 1013.14 1013.35 1013.53 1013.69 1013.84 1013.98 1014.12 1014.27 1014.41 1014.55 1014.67 1014.79 1014.89 1014.97 1015.04 1015.12 1015.21 1015.34 1015.52 1015.78 1016.12 1016.56 1017.09 1017.72 1018.41 1019.15 1019.91 1020.67 1021.39 1022.06 1022.65 1023.18 1023.64 1024.04
1008.86 1009.23 1009.66 1010.13 1010.62 1011.10 1011.57 1011.99 1012.37 1012.71 1013.01 1013.28 1013.52 1013.76 1013.99 1014.23 1014.47 1014.71 1014.95 1015.17 1015.37 1015.54 1015.69 1015.81 1015.91 1016.00 1016.10 1016.24 1016.42 1016.69 1017.04 1017.48 1018.02 1018.65 1019.34 1020.08 1020.84 1021.60 1022.32 1022.99 1023.61 1024.15 1024.63 1025.05
1008.69 1009.03 1009.43 1009.89 1010.37 1010.86 1011.34 1011.79 1012.21 1012.60 1012.96 1013.30 1013.62 1013.94 1014.26 1014.59 1014.91 1015.24 1015.55 1015.85 1016.11 1016.35 1016.54 1016.70 1016.83 1016.95 1017.08 1017.24 1017.45 1017.72 1018.09 1018.53 1019.07 1019.69 1020.38 1021.11 1021.85 1022.59 1023.30 1023.97 1024.57 1025.12 1025.60 1026.02
1008.58 1008.90 1009.28 1009.72 1010.20 1010.70 1011.21 1011.70 1012.18 1012.63 1013.06 1013.47 1013.88 1014.28 1014.67 1015.07 1015.47 1015.86 1016.23 1016.58 1016.90 1017.18 1017.42 1017.62 1017.79 1017.96 1018.12 1018.31 1018.55 1018.85 1019.23 1019.69 1020.22 1020.83 1021.50 1022.21 1022.93 1023.64 1024.32 1024.96 1025.55 1026.08 1026.54 1026.95
1008.66 1008.94 1009.31 1009.74 1010.23 1010.75 1011.28 1011.82 1012.35 1012.87 1013.36 1013.85 1014.32 1014.78 1015.23 1015.69 1016.13 1016.55 1016.97 1017.35 1017.70 1018.02 1018.30 1018.54 1018.77 1018.98 1019.19 1019.43 1019.71 1020.04 1020.44 1020.91 1021.45 1022.05 1022.69 1023.37 1024.05 1024.73 1025.38 1025.98 1026.53 1027.02 1027.45 1027.82
1008.99 1009.26 1009.61 1010.04 1010.53 1011.07 1011.64 1012.21 1012.79 1013.35 1013.90 1014.43 1014.95 1015.45 1015.93 1016.40 1016.86 1017.30 1017.73 1018.13 1018.50 1018.85 1019.16 1019.45 1019.72 1019.99 1020.26 1020.55 1020.88 1021.25 1021.68 1022.17 1022.71 1023.29 1023.92 1024.56 1025.21 1025.84 1026.45 1027.00 1027.51 1027.95 1028.33 1028.64
1009.64 1009.90 1010.24 1010.67 1011.17 1011.71 1012.30 1012.90 1013.50 1014.09 1014.66 1015.21 1015.74 1016.24 1016.73 1017.20 1017.65 1018.08 1018.51 1018.91 1019.29 1019.66 1020.01 1020.34 1020.66 1020.98 1021.32 1021.67 1022.05 1022.47 1022.92 1023.43 1023.97 1024.55 1025.16 1025.77 1026.38 1026.96 1027.51 1028.01 1028.46 1028.84 1029.15 1029.40
1010.58 1010.83 1011.18 1011.60 1012.10 1012.65 1013.23 1013.83 1014.43 1015.02 1015.59 1016.13 1016.64 1017.13 1017.60 1018.04 1018.47 1018.89 1019.30 1019.70 1020.09 1020.47 1020.85 1021.22 1021.59 1021.97 1022.36 1022.77 1023.20 1023.66 1024.15 1024.67 1025.22 1025.79 1026.37 1026.95 1027.51 1028.04 1028.54 1028.98 1029.36 1029.67 1029.91 1030.09
1011.72 1011.99 1012.33 1012.76 1013.24 1013.78 1014.35 1014.93 1015.51 1016.08 1016.62 1017.13 1017.62 1018.07 1018.50 1018.92 1019.32 1019.72 1020.11 1020.51 1020.90 1021.30 1021.71 1022.13 1022.54 1022.98 1023.42 1023.87 1024.34 1024.84 1025.35 1025.88 1026.43 1026.98 1027.53 1028.06 1028.58 1029.06 1029.49 1029.86 1030.17 1030.41 1030.58 1030.67
1012.94 1013.23 1013.58 1014.00 1014.48 1015.00 1015.54 1016.09 1016.63 1017.16 1017.67 1018.15 1018.60 1019.02 1019.42 1019.82 1020.20 1020.58 1020.97 1021.37 1021.78 1022.21 1022.64 1023.09 1023.55 1024.02 1024.50 1024.98 1025.49 1025.99 1026.51 1027.04 1027.56 1028.09 1028.60 1029.08 1029.54 1029.96 1030.32 1030.62 1030.86 1031.03 1031.12 1031.14
1014.11 1014.42 1014.79 1015.21 1015.67 1016.16 1016.68 1017.19 1017.70 1018.20 1018.67 1019.12 1019.54 1019.95 1020.34 1020.73 1021.11 1021.50 1021.91 1022.32 1022.75 1023.20 1023.66 1024.14 1024.62 1025.12 1025.61 1026.11 1026.62 1027.12 1027.63 1028.13 1028.62 1029.09 1029.55 1029.98 1030.37 1030.72 1031.01 1031.24 1031.40 1031.50 1031.52 1031.48
Thickness
5672 5679 5680 5682 5683 5679 5677 5674 5668 5677 5683 5698 5705 5707 5709 5711 5712 5712 5712 5713 5713 5712 5712 5712 5711 5710 5709 5708 5707 5705 5702 5700 5699 5698 5697 5695 5693 5692 5691 5689 5688 5686 5684 5683
5669 5677 5678 5678 5684 5683 5682 5683 5681 5685 5690 5707 5709 5708 5707 5709 5711 5711 5711 5713 5714 5714 5713 5712 5711 5711 5710 5708 5707 5705 5702 5700 5699 5697 5695 5693 5691 5689 5688 5686 5685 5683 5681 5680
5654 5666 5671 5667 5683 5685 5687 5691 5690 5687 5698 5708 5706 5706 5707 5709 5711 5712 5713 5714 5714 5714 5714 5714 5714 5713 5711 5709 5707 5704 5701 5699 5697 5695 5693 5691 5689 5686 5685 5683 5681 5680 5678 5677
5647 5657 5651 5675 5695 5695 5694 5697 5700 5702 5705 5708 5710 5711 5713 5713 5713 5713 5715 5715 5716 5715 5715 5715 5714 5713 5711 5708 5706 5703 5700 5698 5696 5693 5691 5688 5686 5684 5682 5680 5678 5676 5675 5673
5639 5643 5654 5675 5690 5691 5689 5692 5703 5702 5704 5705 5709 5708 5708 5715 5716 5717 5718 5718 5718 5718 5716 5715 5713 5712 5709 5706 5704 5701 5698 5696 5694 5692 5689 5686 5683 5682 5680 5677 5675 5673 5672 5670
5636 5641 5645 5671 5692 5698 5693 5685 5704 5703 5702 5702 5703 5692 5701 5715 5716 5717 5718 5718 5717 5716 5714 5713 5712 5711 5707 5704 5701 5699 5698 5696 5693 5690 5688 5685 5683 5680 5677 5675 5672 5670 5668 5666
5635 5638 5651 5678 5690 5693 5674 5682 5704 5705 5704 5702 5700 5704 5710 5714 5715 5715 5716 5716 5715 5713 5711 5710 5709 5708 5704 5701 5699 5699 5697 5694 5691 5688 5686 5684 5681 5678 5674 5672 5668 5665 5663 5661
5632 5636 5649 5683 5684 5681 5686 5700 5703 5704 5705 5703 5704 5707 5709 5710 5711 5712 5711 5711 5711 5708 5706 5706 5705 5703 5699 5697 5698 5696 5693 5690 5687 5685 5683 5681 5677 5673 5670 5667 5663 5659 5657 5655
5648 5655 5673 5681 5685 5692 5695 5696 5700 5702 5704 5704 5703 5703 5704 5705 5706 5707 5707 5706 5706 5704 5701 5700 5700 5699 5696 5694 5693 5691 5688 5685 5682 5680 5678 5676 5672 5668 5664 5661 5658 5655 5652 5649
5648 5660 5671 5679 5684 5690 5694 5697 5701 5702 5702 5702 5700 5700 5699 5699 5700 5701 5701 5701 5700 5699 5696 5694 5694 5694 5693 5691 5689 5687 5682 5679 5676 5674 5671 5669 5666 5663 5659 5655 5652 5649 5647 5643
5646 5659 5668 5677 5681 5686 5691 5694 5696 5699 5700 5699 5698 5696 5695 5695 5695 5695 5695 5695 5695 5693 5691 5689 5688 5687 5686 5685 5684 5680 5676 5673 5670 5668 5665 5661 5658 5655 5654 5652 5650 5647 5643 5640
5646 5658 5660 5668 5678 5682 5684 5687 5690 5692 5692 5694 5694 5692 5692 5691 5690 5690 5690 5689 5688 5686 5685 5683 5682 5681 5680 5680 5678 5675 5670 5667 5664 5661 5658 5655 5650 5646 5645 5644 5643 5641 5639 5635
5653 5660 5662 5668 5673 5677 5679 5683 5685 5687 5687 5687 5688 5688 5687 5685 5685 5685 5684 5683 5682 5680 5679 5677 5676 5675 5674 5674 5672 5669 5666 5662 5659 5655 5652 5648 5644 5640 5636 5634 5633 5631 5629 5627
5650 5653 5655 5661 5665 5671 5674 5677 5678 5679 5680 5681 5681 5681 5680 5679 5678 5677 5677 5676 5676 5674 5672 5671 5670 5668 5668 5668 5666 5663 5660 5657 5653 5649 5646 5642 5638 5634 5631 5628 5623 5620 5619 5618
5644 5648 5651 5656 5660 5663 5666 5668 5669 5669 5671 5672 5673 5673 5672 5672 5670 5670 5670 5670 5668 5666 5665 5664 5662 5661 5661 5660 5659 5656 5653 5649 5645 5642 5638 5635 5631 5628 5624 5620 5616 5612 5609 5607
5637 5641 5645 5648 5651 5654 5656 5658 5660 5661 5663 5664 5664 5665 5665 5665 5663 5662 5662 5663 5661 5658 5657 5656 5655 5654 5654 5653 5651 5648 5645 5643 5639 5634 5631 5627 5623 5620 5616 5612 5607 5603 5600 5597
5628 5631 5635 5638 5642 5645 5648 5652 5654 5655 5656 5657 5657 5658 5657 5656 5654 5653 5653 5653 5653 5651 5650 5649 5647 5647 5646 5645 5643 5640 5637 5634 5631 5627 5622 5619 5615 5611 5607 5603 5599 5595 5591 5589
5625 5629 5632 5634 5637 5639 5640 5644 5646 5647 5648 5650 5650 5650 5649 5648 5647 5645 5644 5644 5643 5641 5640 5641 5640 5639 5638 5636 5634 5632 5629 5625 5622 5618 5614 5610 5606 5602 5598 5594 5590 5586 5581 5578
5618 5621 5624 5626 5629 5631 5633 5635 5637 5638 5639 5640 5641 5641 5641 5640 5639 5637 5636 5635 5635 5632 5632 5632 5633 5631 5629 5628 5626 5623 5620 5616 5612 5608 5605 5601 5596 5592 5588 5584 5580 5576 5572 5568
5608 5612 5614 5616 5619 5621 5623 5626 5628 5629 5629 5630 5630 5630 5629 5629 5629 5628 5627 5626 5626 5626 5625 5624 5623 5622 5620 5618 5617 5614 5611 5607 5603 5599 5595 5591 5586 5582 5578 5574 5570 5566 5562 5557
5599 5602 5605 5606 5609 5611 5613 5616 5618 5619 5619 5620 5621 5620 5619 5619 5619 5618 5618 5616 5617 5617 5617 5616 5615 5613 5611 5610 5608 5604 5601 5597 5593 5589 5585 5581 5576 5572 5568 5564 5560 5555 5551 5546
5590 5593 5595 5597 5599 5600 5602 5604 5607 5609 5610 5610 5610 5610 5609 5608 5608 5608 5608 5609 5608 5608 5607 5606 5606 5605 5603 5600 5597 5594 5591 5587 5583 5579 5575 5571 5566 5562 5557 5553 5548 5544 5539 5534
5579 5582 5584 5586 5588 5589 5591 5593 5595 5597 5599 5600 5600 5600 5599 5599 5599 5599 5598 5598 5599 5599 5598 5597 5598 5596 5594 5590 5586 5583 5580 5576 5572 5568 5564 5560 5556 5551 5546 5542 5537 5532 5527 5523
5568 5571 5573 5575 5577 5578 5579 5581 5584 5586 5587 5589 5590 5590 5590 5588 5587 5588 5589 5589 5589 5589 5587 5587 5587 5585 5582 5578 5575 5571 5568 5564 5561 5557 5553 5548 5543 5539 5534 5529 5524 5520 5515 5511
5558 5559 5562 5564 5565 5567 5568 5570 5572 5573 5575 5576 5577 5579 5579 5580 5578 5577 5578 5578 5578 5577 5575 5575 5575 5573 5569 5565 5562 5559 5555 5552 5548 5544 5540 5535 5531 5526 5521 5517 5512 5507 5503 5498
5546 5548 5551 5553 5555 5556 5558 5560 5561 5562 5563 5564 5565 5566 5567 5568 5567 5567 5566 5566 5565 5565 5563 5561 5560 5558 5555 5552 5549 5546 5542 5539 5535 5530 5526 5522 5518 5514 5509 5505 5500 5496 5492 5487
5535 5537 5539 5541 5543 5545 5547 5549 5551 5552 5554 5555 5554 5554 5555 5556 5556 5555 5554 5553 5551 5550 5549 5547 5546 5544 5542 5539 5536 5533 5529 5525 5521 5517 5513 5509 5505 5501 5497 5493 5488 5484 5480 5476